London-Corbin, KY

7:56 PM EDT on May 27, 2018 (GMT -0400)
London-Corbin / McKee

Weather History for KLOZ - December, 2012

Change the Weather History Date:

Tuesday, December 18, 2012

  Actual Average Record
Temperature  
Mean Temperature 45 °F 38 °F  
Max Temperature 49 °F 47 °F 71 °F (2016)
Min Temperature 40 °F 29 °F 0 °F (1963)
Degree Days  
Heating Degree Days 20 27  
Month to date heating degree days 298 453  
Since 1 July heating degree days 1352 1283  
Cooling Degree Days 0 0  
Month to date cooling degree days 0 0  
Year to date cooling degree days 1226 1190  
Moisture  
Dew Point 37 °F    
Average Humidity 75    
Maximum Humidity 93    
Minimum Humidity 56    
Precipitation  
Precipitation T in 0.13 in 1.63 in (1959)
Month to date precipitation 3.75 2.58  
Year to date precipitation 43.87  
Sea Level Pressure  
Sea Level Pressure 29.82 in    
Wind  
Wind Speed 8 mph (WSW)    
Max Wind Speed 20 mph    
Max Gust Speed 25 mph    
Visibility 10 miles    
Events Rain    
T = Trace of Precipitation, MM = Missing Value Source: NWS Daily Summary

Daily Weather History Graph

Daily Weather History Graph

Search for Another Location

Airport or City:

Astronomy

Dec. 18, 2012 Rise Set
Actual Time 7:44 AM EST 5:21 PM EST
Civil Twilight 7:15 AM EST 5:50 PM EST
Nautical Twilight 6:43 AM EST 6:23 PM EST
Astronomical Twilight 6:11 AM EST 6:55 PM EST
Moon 11:31 AM EST (12/18) 11:38 PM EST (12/18)
Length of Visible Light 10h 35m
Length of Day
9h 36m
Waxing Crescent, 34% of the Moon is Illuminated
Dec 18
Waxing Crescent
Dec 20
First Quarter
Dec 28
Full
Jan 4
Last Quarter
Jan 11
New

Hourly Weather History & Observations

Time (EST) Temp. Windchill Dew Point Humidity Pressure Visibility Wind Dir Wind Speed Gust Speed Precip Events Conditions
12:21 AM 46.4 °F 42.9 °F 44.6 °F 93% 29.67 in 10.0 mi WSW 6.9 mph - N/A   Mostly Cloudy
12:53 AM 46.0 °F 43.9 °F 44.1 °F 93% 29.67 in 10.0 mi WSW 4.6 mph - N/A   Overcast
1:09 AM 46.4 °F 42.9 °F 44.6 °F 93% 29.68 in 10.0 mi WSW 6.9 mph - N/A   Overcast
1:30 AM 46.4 °F 41.9 °F 44.6 °F 93% 29.69 in 10.0 mi WSW 9.2 mph - 0.00 in   Overcast
1:39 AM 46.4 °F 42.9 °F 44.6 °F 93% 29.69 in 10.0 mi WSW 6.9 mph - 0.00 in   Overcast
1:53 AM 46.9 °F - 44.1 °F 90% 29.69 in 10.0 mi WSW 11.5 mph - 0.00 in   Overcast
2:53 AM 46.0 °F 40.2 °F 41.0 °F 83% 29.71 in 10.0 mi West 12.7 mph - 0.00 in   Overcast
3:53 AM 45.0 °F 40.1 °F 41.0 °F 86% 29.73 in 10.0 mi West 9.2 mph - N/A   Overcast
4:03 AM 44.6 °F 40.2 °F 41.0 °F 87% 29.73 in 10.0 mi West 8.1 mph - N/A   Overcast
4:43 AM 44.6 °F 37.4 °F 41.0 °F 87% 29.74 in 10.0 mi West 16.1 mph 24.2 mph 0.00 in   Overcast
4:53 AM 44.1 °F 37.4 °F 41.0 °F 89% 29.75 in 9.0 mi West 13.8 mph 21.9 mph 0.00 in   Overcast
5:24 AM 42.8 °F 35.8 °F 39.2 °F 87% 29.77 in 9.0 mi WNW 13.8 mph 20.7 mph 0.00 in Rain Light Rain
5:44 AM 42.8 °F 35.8 °F 39.2 °F 87% 29.78 in 10.0 mi West 13.8 mph 18.4 mph 0.00 in   Overcast
6:18 AM 42.8 °F 36.6 °F 37.4 °F 81% 29.80 in 10.0 mi West 11.5 mph 21.9 mph 0.00 in   Overcast
6:36 AM 41.0 °F 34.7 °F 37.4 °F 87% 29.81 in 10.0 mi WNW 10.4 mph 19.6 mph 0.00 in   Overcast
6:53 AM 41.0 °F 34.3 °F 37.0 °F 86% 29.83 in 10.0 mi WNW 11.5 mph - 0.00 in   Overcast
7:35 AM 39.2 °F 30.8 °F 35.6 °F 87% 29.86 in 10.0 mi West 15.0 mph - N/A   Overcast
7:53 AM 39.9 °F 33.9 °F 35.1 °F 83% 29.87 in 10.0 mi West 9.2 mph 18.4 mph N/A   Overcast
8:53 AM 39.9 °F 33.4 °F 34.0 °F 79% 29.89 in 10.0 mi West 10.4 mph - N/A   Overcast
9:53 AM 39.9 °F 33.9 °F 35.1 °F 83% 29.90 in 10.0 mi West 9.2 mph - N/A   Overcast
10:24 AM 39.2 °F 35.0 °F 35.6 °F 87% 29.91 in 10.0 mi WSW 5.8 mph - N/A   Overcast
10:53 AM 39.9 °F 34.5 °F 35.1 °F 83% 29.94 in 10.0 mi West 8.1 mph - N/A   Overcast
11:53 AM 41.0 °F 35.2 °F 35.1 °F 79% 29.94 in 10.0 mi WSW 9.2 mph - N/A   Overcast
12:53 PM 42.1 °F 39.2 °F 34.0 °F 73% 29.92 in 10.0 mi SW 4.6 mph - N/A   Overcast
1:40 PM 44.6 °F 41.4 °F 35.6 °F 71% 29.90 in 10.0 mi West 5.8 mph - N/A   Scattered Clouds
1:53 PM 45.0 °F 43.5 °F 35.1 °F 68% 29.90 in 10.0 mi West 3.5 mph - N/A   Partly Cloudy
2:53 PM 46.9 °F - 34.0 °F 61% 29.90 in 10.0 mi SW 6.9 mph - N/A   Clear
3:53 PM 48.0 °F - 34.0 °F 58% 29.90 in 10.0 mi SW 5.8 mph - N/A   Clear
4:53 PM 48.0 °F - 34.0 °F 58% 29.90 in 10.0 mi SW 3.5 mph - N/A   Clear
5:53 PM 44.1 °F 42.5 °F 34.0 °F 68% 29.88 in 10.0 mi SSE 3.5 mph - N/A   Clear
6:53 PM 43.0 °F 41.3 °F 33.1 °F 68% 29.88 in 10.0 mi South 3.5 mph - N/A   Clear
7:53 PM 44.1 °F 40.8 °F 30.9 °F 60% 29.88 in 10.0 mi South 5.8 mph - N/A   Clear
8:53 PM 41.0 °F 38.0 °F 30.0 °F 65% 29.88 in 10.0 mi South 4.6 mph - N/A   Clear
9:53 PM 41.0 °F 37.1 °F 30.0 °F 65% 29.88 in 10.0 mi SSW 5.8 mph - N/A   Clear
10:53 PM 41.0 °F 37.1 °F 30.9 °F 67% 29.88 in 10.0 mi SSW 5.8 mph - N/A   Clear
11:53 PM 45.0 °F 40.1 °F 30.0 °F 56% 29.90 in 10.0 mi WSW 9.2 mph - N/A   Clear